Weather in Kagel Canyon

United States     34°20′00″N   118°23′06″W
temp.,
°C
wind,
m/s
gust,
m/s
humid.,
%
clouds,
%
prec.,
mm/h
press.,
hPa
HPBL,
m
18 september, sat
sat1823:00+19sse12593 0.0 1017261
02:00+18s11650 0.0 1016210
05:00+17ssw10670 0.0 1016164
08:00+17s21731 0.0 1018270
11:00+21sse33520 0.0 1018566
14:00+26sse33330 0.0 1016827
17:00+26s32310 0.0 1014820
20:00+22ssw11490 0.0 1015334
19 september, sun
sun1923:00+20sse11560 0.0 1016259
02:00+19s10600 0.0 1015164
05:00+19s00600 0.0 1014101
08:00+19wsw00530 0.0 1014201
11:00+24s21330 0.0 1014628
14:00+28s32260 0.0 10111121
17:00+28s32310 0.0 1010947
20:00+23sse22450 0.0 1011338
20 september, mon
mon2023:00+22sse11490 0.0 1011222
02:00+21ssw00510 0.0 1011143
05:00+20nw12510 0.0 101181
08:00+21nnw11440 0.0 1012178
11:00+27ssw21300 0.0 1012590
14:00+32sse33230 0.0 10111001
17:00+30s32280 0.0 1010684
20:00+26sse22400 0.0 1013297
21 september, tue
tue2123:00+23sse22500 0.0 1014204
02:00+23se01510 0.0 101455
05:00+22e00490 0.0 101526
08:00+24ene01350 0.0 101657
11:00+28s31280 0.0 1017433
14:00+32sse34240 0.0 1016707
17:00+32s33230 0.0 1015660
20:00+27sse22360 0.0 1017273
22 september, wed
wed2223:00+25sse11440 0.0 1018200
02:00+25n11430 0.0 101728
05:00+24nnw11400 0.0 101717
08:00+25nnw11360 0.0 101865
11:00+32sw22200 0.0 1017464
14:00+35s33170 0.0 10151259
17:00+34w33172 0.0 1013908
20:00+29nw23184 0.0 1014223